Weather History for Pian Rosa, Italy

Change the Weather History Date:

Saturday, May 25, 2013

  Actual Average Record
Temperature  
Mean Temperature 8 °F -  
Max Temperature 11 °F 33 °F 41 °F (2007)
Min Temperature 6 °F 23 °F 6 °F (2013)
Degree Days  
Heating Degree Days 56    
Moisture  
Dew Point 6 °F    
Average Humidity 82    
Maximum Humidity 85    
Minimum Humidity 72    
Precipitation  
Precipitation 0.02 in - - ()
Sea Level Pressure  
Sea Level Pressure 29.61 in    
Wind  
Wind Speed 15 mph ()    
Max Wind Speed 39 mph    
Max Gust Speed -    
Visibility 0.3 miles    
Events Fog , Snow    
Averages and records for this station are not official NWS values.
T = Trace of Precipitation, MM = Missing Value Source: Averaged Metar Reports

Daily Weather History Graph

Daily Weather History Graph

Search for Another Location

Airport:

Trip Planner

Search our weather history database for the weather conditions in past years. The results will help you decide how hot, cold, wet, or windy it might be!

Date:

Astronomy

May. 25, 2013 Rise Set
Actual Time 5:47 AM CEST 9:05 PM CEST
Civil Twilight 5:10 AM CEST 9:42 PM CEST
Nautical Twilight 4:23 AM CEST 10:30 PM CEST
Astronomical Twilight 3:23 AM CEST 11:30 PM CEST
Moon 9:35 PM CEST (5/25) 5:59 AM CEST (5/25)
Length of Visible Light 16h 31m
Length of Day
15h 18m
Full, 100% of the Moon is Illuminated
May 25
Full
May 31
Last Quarter
Jun 8
New
Jun 16
First Quarter
Jun 23
Full

Hourly Weather History & Observations

Time (CEST) Temp. Windchill Dew Point Humidity Pressure Visibility Wind Dir Wind Speed Gust Speed Precip Events Conditions
12:55 AM 8.6 °F 2.0 °F 5.0 °F 85% 29.65 in 6.2 mi SSE 3.5 mph - N/A   Partly Cloudy
1:55 AM 10.4 °F -0.4 °F 6.8 °F 85% 29.65 in 0.5 mi South 6.9 mph - N/A Fog Light Freezing Fog
2:00 AM 10 °F - 6 °F 79%  in 0 mi South 6.9 mph - - Fog Heavy Fog
2:55 AM 10.4 °F 4.0 °F 6.8 °F 85% 29.59 in 0.5 mi South 3.5 mph - N/A Fog Light Freezing Fog
3:55 AM 12.2 °F 4.3 °F 8.6 °F 85% 29.59 in 0.1 mi South 4.6 mph - N/A Fog , Snow Light Snow
4:55 AM 10.4 °F -1.5 °F 6.8 °F 85% 29.56 in 0.1 mi ENE 8.1 mph - N/A Fog , Snow Light Snow
5:00 AM 10 °F - 6 °F 77%  in 0 mi ENE 8.1 mph - - Snow Light Snow
5:55 AM 8.6 °F -4.7 °F 3.2 °F 79% 29.56 in 0.1 mi ENE 9.2 mph - N/A Fog , Snow Light Snow
6:55 AM 6.8 °F -8.6 °F 3.2 °F 85% 29.56 in 0.3 mi NE 11.5 mph - N/A Fog , Snow Light Snow
7:55 AM 6.8 °F -12.4 °F 3.2 °F 85% 29.53 in 0.1 mi ENE 18.4 mph - N/A Fog , Snow Light Snow
8:00 AM 7 °F - 3 °F 76%  in 0 mi ENE 18.4 mph - -  
8:55 AM 6.8 °F -12.4 °F 3.2 °F 85% 29.56 in 0.1 mi ENE 18.4 mph - N/A Fog , Snow Light Snow
9:55 AM 8.6 °F -11.4 °F 3.2 °F 79% 29.56 in 0.1 mi ENE 21.9 mph - N/A Fog , Snow Light Snow
10:55 AM 8.6 °F -12.3 °F 5.0 °F 85% 29.56 in 0.1 mi ENE 24.2 mph - N/A Fog , Snow Light Snow
11:00 AM 9 °F - 4 °F 72%  in 0 mi ENE 24.2 mph - - Snow Light Snow
11:55 AM 8.6 °F -13.1 °F 5.0 °F 85% 29.56 in 0.3 mi ENE 26.5 mph - N/A Fog , Snow Light Snow
12:55 PM 10.4 °F -8.6 °F 6.8 °F 85% 29.59 in 0.1 mi ENE 20.7 mph - N/A Fog , Snow Light Snow
1:55 PM 10.4 °F -9.5 °F 6.8 °F 85% 29.59 in 0.1 mi NE 23.0 mph - N/A Fog , Snow Light Snow
2:00 PM 11 °F - 7 °F 75%  in 0 mi NE 23.0 mph - - Snow Light Snow
2:55 PM 10.4 °F -11.4 °F 6.8 °F 85% 29.59 in 0.1 mi NE 28.8 mph - N/A Fog , Snow Light Snow
3:55 PM 12.2 °F -8.6 °F 6.8 °F 79% 29.59 in 0.1 mi NE 27.6 mph - N/A Fog , Snow Light Snow
4:55 PM 10.4 °F -11.4 °F 6.8 °F 85% 29.62 in 0.1 mi NE 28.8 mph - N/A Fog , Snow Light Snow
5:00 PM 11 °F - 7 °F 77%  in 0 mi NE 28.8 mph - - Snow Light Snow
5:55 PM 10.4 °F -11.0 °F 6.8 °F 85% 29.65 in 0.1 mi NE 27.6 mph - N/A Fog , Snow Light Snow
6:55 PM 10.4 °F -13.2 °F 6.8 °F 85% 29.65 in 0.1 mi ENE 35.7 mph - N/A Fog , Snow Light Snow
7:55 PM 10.4 °F -13.5 °F 6.8 °F 85% 29.65 in 0.1 mi NE 36.8 mph - N/A Fog , Snow Light Snow
8:00 PM 11 °F - 7 °F 75%  in 0 mi NE 36.8 mph - - Snow Light Snow
8:55 PM 10.4 °F -13.2 °F 6.8 °F 85% 29.68 in 0.1 mi NE 35.7 mph - N/A Fog , Snow Light Snow
9:55 PM 10.4 °F -14.1 °F 6.8 °F 85% 29.68 in 0.1 mi NE 39.1 mph - N/A Fog , Snow Light Snow
10:55 PM 10.4 °F -14.1 °F 6.8 °F 85% 29.71 in 0.1 mi NE 39.1 mph - N/A Fog , Snow Light Snow
11:00 PM 10 °F - 6 °F 79%  in 0 mi NE 39.1 mph - - Snow Light Snow
11:55 PM 10.4 °F -13.2 °F 6.8 °F 85% 29.74 in 0.1 mi NE 35.7 mph - N/A Fog , Snow Light Snow